Mombasa, Kenya

11:54 AM EAT on April 26, 2017 (GMT +0300)
Mombasa

Weather History for HKMO - February, 2014

Change the Weather History Date:

Thursday, February 13, 2014

  Actual Average Record
Temperature  
Mean Temperature 83 °F -  
Max Temperature 92 °F 93 °F 93 °F (2011)
Min Temperature 74 °F 72 °F 35 °F (2007)
Cooling Degree Days 18    
Growing Degree Days 33 (Base 50)    
Moisture  
Dew Point 72 °F    
Average Humidity 70    
Maximum Humidity 89    
Minimum Humidity 41    
Precipitation  
Precipitation 0.00 in 0.04 in - ()
Sea Level Pressure  
Sea Level Pressure 29.77 in    
Wind  
Wind Speed 8 mph ()    
Max Wind Speed 21 mph    
Max Gust Speed -    
Visibility 10.1 miles    
Events      
Averages and records for this station are not official NWS values.
T = Trace of Precipitation, MM = Missing Value Source: Averaged Metar Reports

Daily Weather History Graph

Daily Weather History Graph

Search for Another Location

Airport or City:

Trip Planner

Search our weather history database for the weather conditions in past years. The results will help you decide how hot, cold, wet, or windy it might be!

Date:

Astronomy

Feb. 13, 2014 Rise Set
Actual Time 6:28 AM EAT 6:42 PM EAT
Civil Twilight 6:07 AM EAT 7:04 PM EAT
Nautical Twilight 5:42 AM EAT 7:29 PM EAT
Astronomical Twilight 5:17 AM EAT 7:53 PM EAT
Moon 5:33 PM EAT (2/13) 5:02 AM EAT (2/13)
Length of Visible Light 12h 57m
Length of Day
12h 14m
Waxing Gibbous, 98% of the Moon is Illuminated
Feb 13
Waxing Gibbous
Feb 15
Full
Feb 22
Last Quarter
Mar 1
New
Mar 8
First Quarter

Hourly Weather History & Observations

Time (EAT) Temp. Heat Index Dew Point Humidity Pressure Visibility Wind Dir Wind Speed Gust Speed Precip Events Conditions
12:00 AM 79 °F - 74 °F 79% 29.81 in 19 mi Calm Calm - -   Mostly Cloudy
12:00 AM 78.8 °F - 73.4 °F 83% 29.80 in 6.2 mi Calm Calm - N/A   Partly Cloudy
3:00 AM 77 °F - 73 °F 85% 29.76 in 19 mi Calm Calm - -   Scattered Clouds
3:00 AM 77.0 °F - 73.4 °F 89% 29.77 in 6.2 mi Calm Calm - N/A   Partly Cloudy
6:00 AM 77 °F - 73 °F 84% 29.80 in 19 mi WNW 5.8 mph - -   Scattered Clouds
7:00 AM 77.0 °F - 73.4 °F 89% 29.80 in 6.2 mi North 8.1 mph - N/A   Mostly Cloudy
8:00 AM 78.8 °F - 71.6 °F 78% 29.83 in 6.2 mi North 11.5 mph - N/A   Mostly Cloudy
9:00 AM 81 °F - 71 °F 66% 29.84 in 19 mi North 13.8 mph - -   Scattered Clouds
9:00 AM 80.6 °F 84.6 °F 71.6 °F 74% 29.83 in 6.2 mi North 13.8 mph - N/A   Mostly Cloudy
10:00 AM 84.2 °F 89.6 °F 71.6 °F 66% 29.83 in 6.2 mi NNE 13.8 mph - N/A   Partly Cloudy
11:00 AM 87.8 °F 92.6 °F 69.8 °F 55% 29.83 in 6.2 mi NE 11.5 mph - N/A   Partly Cloudy
12:00 PM 91 °F - 70 °F 41% 29.78 in 19 mi North 11.5 mph - -   Scattered Clouds
12:00 PM 91.4 °F 96.8 °F 69.8 °F 49% 29.77 in 6.2 mi North 11.5 mph - N/A   Partly Cloudy
1:00 PM 89.6 °F 96.2 °F 71.6 °F 55% 29.74 in 6.2 mi ENE 18.4 mph - N/A   Scattered Clouds
2:00 PM 91.4 °F 100.1 °F 73.4 °F 55% 29.71 in 6.2 mi East 20.7 mph - N/A   Scattered Clouds
3:00 PM 90 °F - 73 °F 48% 29.70 in 19 mi NE 18.4 mph - -   Scattered Clouds
3:00 PM 89.6 °F 98.2 °F 73.4 °F 59% 29.68 in 6.2 mi NE 18.4 mph - N/A   Partly Cloudy
4:00 PM 87.8 °F 93.8 °F 71.6 °F 58% 29.68 in 6.2 mi NE 20.7 mph - N/A   Partly Cloudy
5:00 PM 86.0 °F 91.8 °F 71.6 °F 62% 29.68 in 6.2 mi NE 20.7 mph - N/A   Partly Cloudy
6:00 PM 83 °F - 73 °F 65% 29.72 in 19 mi NE 13.8 mph - -   Scattered Clouds
6:00 PM 82.4 °F 88.2 °F 73.4 °F 74% 29.71 in 6.2 mi NE 13.8 mph - N/A   Partly Cloudy
7:00 PM 80.6 °F 85.4 °F 73.4 °F 79% 29.74 in 6.2 mi NE 18.4 mph - N/A   Partly Cloudy
8:00 PM 80.6 °F 85.4 °F 73.4 °F 79% 29.74 in 6.2 mi NE 17.3 mph - N/A   Partly Cloudy
9:00 PM 80 °F - 73 °F 75% 29.78 in 19 mi NE 13.8 mph - -   Scattered Clouds
9:00 PM 80.6 °F 85.4 °F 73.4 °F 79% 29.77 in 6.2 mi NE 13.8 mph - N/A   Partly Cloudy
11:00 PM 78.8 °F - 73.4 °F 83% 29.80 in 6.2 mi NE 9.2 mph - N/A   Partly Cloudy